ASTRA 5B (EGNOS/PRN 123)

Last updated on Jan. 27, 2020, 4:39 a.m. UTC

1 39617U 14011B   20026.34563293  .00000148  00000-0  00000+0 0  9990
2 39617   0.0465 310.5943 0003470 359.1980 331.2049  1.00269749 21460
UTC
Height (km)
Latitude
Longitude
Inclination
Orbital Period
UTC large
Height (km)
Speed (km/s)
/
Latitude / Longitude
Inclination (degrees)
Orbital Period (minutes)
Azimuth
Elevation
Range (km)
Doppler Factor
iOS Compass Heading
iOS Angle

Next 30 passes for location: Hong Kong

Rise time Rise Azimuth (degrees) Set time Set Azimuth (degrees) Duration Max altitude (degrees)

No matching passes for this satellites